Weather Roundup
Issued by NWS Chicago, IL

Home | Current Version | Previous Version | Graphics & Text | Print | Product List | Glossary On
Versions: 1 2 3 4 5 6 7 8 9 10 11 12 13 14 15 16 17 18 19 20 21 22 23 24 25 26 27 28 29 30 31 32 33 34 35 36 37 38 39 40 41 42 43 44 45 46 47 48 49 50
000
NZUS59 KLOT 180706
HRRLOT

CHICAGO AREA WEATHER ROUNDUP
NATIONAL WEATHER SERVICE CHICAGO/ROMEOVILLE IL
200 AM CDT FRI APR 18 2014

NOTE: "FAIR" INDICATES FEW OR NO CLOUDS BELOW 12,000 FEET WITH NO
SIGNIFICANT WEATHER AND/OR OBSTRUCTIONS TO VISIBILITY.

* THESE STATIONS ARE NOT UNDER NWS QUALITY CONTROL. THEY ALSO MAY NOT
  REPORT WEATHER SUCH AS PRECIPITATION OR FOG.

ILZ005-006-012>014-019>023-180800-
NORTHEAST ILLINOIS

CITY           SKY/WX    TMP DP  RH WIND       PRES   REMARKS
OHARE          CLOUDY    46  36  68 SE3       30.25F
MIDWAY         CLOUDY    49  39  68 CALM      30.26S
AURORA         CLOUDY    42  36  79 W7        30.26F
LANSING*       CLOUDY    48  42  79 W3        30.25F
JOLIET*        CLOUDY    48  37  67 W3        30.27F
WAUKEGAN       CLOUDY    42  36  79 N5        30.27R
DUPAGE AIRPORT CLOUDY    45  37  73 W3        30.25F
WHEELING       CLOUDY    45  37  73 CALM      30.26F
KANKAKEE*      DRIZZLE   49  41  75 NW10      30.25F
MORRIS*        CLOUDY    46  36  67 W6        30.26S
LEWIS AIRPORT* CLOUDY    46  38  74 W5        30.26S
NORTHERLY IS     N/A     46  38  73 S1          N/A
$$

WIZ051-052-058>065-066-070>072-180800-
SOUTHEAST WISCONSIN

CITY           SKY/WX    TMP DP  RH WIND       PRES   REMARKS
MILWAUKEE      MOCLDY    42  34  73 N3        30.29R
KENOSHA*       CLOUDY    39  36  89 E3        30.27S
RACINE*        MOCLDY    41  35  79 N6        30.29S
BURLINGTON     PTCLDY    37  34  87 NW6       30.27F
WAUKESHA       PTCLDY    36  32  87 NW3       30.29S
$$

INZ001>003-010>013-019-020-180800-
NORTHWEST INDIANA

CITY           SKY/WX    TMP DP  RH WIND       PRES   REMARKS
GARY*          CLOUDY    48  41  77 CALM      30.25F
MICHIGAN CITY* NOT AVBL
RENSSELAER*    NOT AVBL
VALPARAISO     LGT RAIN  49  42  77 CALM      30.25F
$$

LMZ740>746-180800-
SOUTHERN LAKE MICHIGAN

STATION/POSITION TIME  SKY/WX   TEMP WIND        PRES    VSBY
                                AIR  DIR/SP/G
                 (UTC)          (F)  (DEG/KT/KT) (MB)    (MI)
HARRISON CRIB    0700            45  180/  6/  7   N/A
BURNHAM HARBOR   0700            46  160/  2/  3   N/A
CALUMET HARBOR   0700            46  110/  3/  3 1025.2S
BURNS HARBOR     NOT AVBL
MICHIGAN CITY    0700            46  100/  3/  5   N/A
$$

ABBREVIATIONS USED IN REMARKS
   TC - TEMPERATURE IN CELSIUS
  WCI - WIND CHILL INDEX
   HX - HEAT INDEX
  VSB - VISIBILITY
$$



USA.gov is the U.S. government's official web portal to all federal, state and local government web resources and services.